Content
SEND FEEDBACK

Daily
Averages
Monthly
Summary
United States of America

EDGERTON, MISSOURI


Home > North America > United States > Missouri
Elevation: 850 feet     Latitude: 39 30N     Longitude: 094 37W

WEATHER
 
SELECT A DAY
Number of Records: 194,078;   Date Range: 1/1/95 - 9/30/14
 
SHARE

PRINT THIS DATA

[ ← Previous Day ]
WEATHER ALMANAC - JANUARY 6, 2013
[ Next Day → ]
[ °C ]   °F
Weather ElementAverageHighLow
Temperature28.2 °F37.9 °F (3:53 pm)21 °F (7:53 am)
Dewpoint17.5 °F19 °F (1:53 am)15.1 °F (4:53 am)
Humidity65.4 %81 % (7:53 am)45 % (3:53 pm)
Barometer30.32 in30.40 in (10:53 am)30.21 in (1:53 am)
Wind Speed8 mph13.8 mph (4:53 am)
Weather ElementAverage
Visibility9.8 mi
Wind DirectionWSW (251.3 °)

Weather ElementTotal
Precipitation---
Heating Degree Days35.6 (Base 65)
Averaged from 23 records on January 6, 2013
WEATHER CONDITIONS BREAKOUT
WIND DIRECTION BREAKOUT
WEATHER BY HOUR - JANUARY 6, 2013
[ °C ]   °F
Local TimeTemperatureDewpointHumidityBarometerVisibilityWind DirectionWind SpeedGust SpeedPrecipitationEventsConditions
1:53 AM27.0 °F19.0 °F72 %30.21 in10.0 miNW (310°)8.1 mphPartly Cloudy
2:53 AM25.0 °F18.0 °F75 %30.24 in10.0 miNW (310°)8.1 mphScattered Clouds
3:53 AM24.1 °F17.1 °F75 %30.26 in10.0 miNW (310°)8.1 mphMostly Cloudy
4:53 AM21.9 °F15.1 °F75 %30.28 in10.0 miNW (320°)13.8 mphOvercast
5:53 AM21.9 °F16.0 °F78 %30.31 in9.0 miNW (320°)11.5 mphOvercast
6:53 AM21.9 °F16.0 °F78 %30.33 in9.0 miNNW (330°)6.9 mphOvercast
7:53 AM21.0 °F16.0 °F81 %30.35 in9.0 miNW (320°)5.8 mphScattered Clouds
8:53 AM24.1 °F17.1 °F75 %30.37 in9.0 miWest (270°)5.8 mphPartly Cloudy
9:53 AM26.1 °F18.0 °F71 %30.39 in10.0 miWest (280°)9.2 mphClear
10:53 AM28.9 °F18.0 °F64 %30.40 in10.0 miWNW (290°)8.1 mphClear
11:53 AM32.0 °F18.0 °F56 %30.39 in10.0 miWNW (300°)6.9 mphClear
12:53 PM34.0 °F18.0 °F52 %30.36 in10.0 miWSW (240°)6.9 mphClear
1:53 PM35.1 °F18.0 °F50 %30.34 in10.0 miWNW (290°)3.5 mphClear
2:53 PM37.0 °F18.0 °F46 %30.34 in10.0 miSW (230°)5.8 mphClear
3:53 PM37.9 °F18.0 °F45 %30.33 in10.0 miSW (230°)5.8 mphClear
4:53 PM36.0 °F17.1 °F46 %30.33 in10.0 miSSW (210°)4.6 mphClear
5:53 PM32.0 °F17.1 °F54 %30.34 in10.0 miSouth (190°)6.9 mphClear
6:53 PM28.0 °F17.1 °F63 %30.35 in10.0 miSouth (180°)6.9 mphClear
7:53 PM25.0 °F17.1 °F72 %30.34 in10.0 miSouth (180°)8.1 mphClear
8:53 PM26.6 °F17.6 °F69 %30.28 in10.0 miSSE (160°)9.2 mphClear
9:53 PM27.0 °F18.0 °F69 %30.31 in10.0 miSSE (160°)10.4 mphClear
10:53 PM28.0 °F19.0 °F69 %30.29 in10.0 miSouth (180°)11.5 mphClear
11:53 PM28.0 °F19.0 °F69 %30.29 in10.0 miSouth (170°)11.5 mphClear
Hourly data recorded from KMCI, located miles away from Edgerton, Missouri







STORIES FROM OUR PARTNERS